STARLINK-5113, 53988

Orbit data source: Space-Track

STARLINK-5113, 53988 is a payload satellite owned by SpaceX/Seattle (US) in LEO that was launched on Wed, 05 Oct 2022 UTC via an FALCON 9 launch vehicle from the Air Force Western Test Range (AFWTR). Payload-class satellites include a variety of spacecraft equipped with specific instruments for various scientific and technological missions. These include communications satellites like Starlink; space stations such as the ISS; scientific satellites like the Hubble; Earth observation satellites from companies like Planet Labs, Umbra, and HawkEye 360; GPS; miniature CubeSats for education and research; and military/defense satellites.

Loading next visibility...
Identifier
53988, 2022-125AA
Orbit
LEO
Country
Flag of USUS
Related business
Manufacturer
SpaceX/Seattle
Mission
Operational Commercial Communications
Bus & Motor
STARLINK, Unknown motor
Mass
305 kg wet, ~290 kg dry
Launch date (UTC)
2022-10-05 (4 years ago)
Launch vehicle
FALCON 9
Launch site
Air Force Western Test Range (AFWTR)
Object type
Payload
Rocket body
Debris
Shape & HBR
Box + 1 Pan, 10.1 m
Radar Cross Section
13.562 m², Large (>1 m²)

Expand to show TLE details & history
Last TLE update: 2 days ago

TLE from 2 days ago
0 STARLINK-5113
1 53988U 22125AA  26171.24742588  .00000239  00000-0  33088-4 0  9992
2 53988  53.1609 113.7237 0001400  94.6522 265.4629 15.08839712204932
Epoch: 2026-06-20T05:56Z
TLE epoch observation values (Epoch: 2026-06-20T05:56:17.596Z)
Latitude
-0.00003°
Longitude
116.18558°
Altitude
540.712 km
Speed
7.593 km/s
True Right ascension
07h 34m 53s
True Declination
0° 00' 00"
Sunlit
Object was in daylight at epoch
Visualization orbit readout
Latitude
Unknown
Longitude
Unknown
Altitude
Unknown
Speed
Unknown
Apparent Right ascension
Unknown
Apparent Declination
Unknown
Sunlit
N/A
Visualization observer readout
Local Sidereal Time
21:32:33
Azimuth
Unknown
Elevation
Unknown
Doppler factor
Unknown
Orbital elements
Apogee altitude
540.967 km
Perigee altitude
539.03 km
Semi-major axis
6,918.135 km
Eccentricity
0.00014
Inclination
53.1609°
RAAN
113.7237°
Arg. of periapsis
94.6522°
True anomaly
265.44691°
Mean anomaly
265.4629°
Eccentric anomaly
265.4549°
Mean motion
3.7719 °/min
Orbital period
95.44 mins
BSTAR
0.000033088
Loading maneuver chart data...
Computing Atmospheric mass density...
Loading historical data...
Loading historical data...
Loading historical data...
Loading historical data...
Loading historical data...
Loading historical data...
Loading historical data...

Documentation

Showing up to 5 results
|